AG5GL Weather Reports


time (UTC)temp
C
wind
direction
speed
KPH
gust
KPH
rain 1hr
cm
rain 24hr
cm
rain mn
cm
humidity
%
barometer
mb
20260505111115 -17 61 0.0 0.0 0.00 0.00 0.00 1019.6
20260505110115 -17 92 0.0 0.0 0.00 0.00 0.00 1019.5
20260505102108 -17 137 0.0 0.0 0.00 0.00 0.00 1019.2
20260505101108 -17 112 0.0 0.0 0.00 0.00 0.00 1019.1
20260505100107 -17 93 0.0 0.0 0.00 0.00 0.00 1019.0
20260505095105 -17 76 0.0 0.0 0.00 0.00 0.00 1018.9
20260505094104 -17 132 0.0 0.0 0.00 0.00 0.00 1018.9
20260505093104 -17 33 0.0 0.0 0.00 0.00 0.00 1018.8
20260505092100 -17 42 0.0 0.0 0.00 0.00 0.00 1018.7
20260505091054 -17 119 0.0 0.0 0.00 0.00 0.00 1018.7
20260505090049 -17 73 0.0 0.0 0.00 0.00 0.00 1018.5
20260505085045 -17 72 0.0 0.0 0.00 0.00 0.00 1018.6
20260505084041 -17 47 0.0 0.0 0.00 0.00 0.00 1018.6
20260505083040 -17 69 0.0 0.0 0.00 0.00 0.00 1018.5
20260505082039 -17 44 0.0 0.0 0.00 0.00 0.00 1018.6
20260505081038 -17 75 0.0 0.0 0.00 0.00 0.00 1018.6
20260505080037 -17 81 0.0 0.0 0.00 0.00 0.00 1018.8
20260505075036 -17 187 0.0 0.0 0.00 0.00 0.00 1018.8
20260505074036 -17 63 0.0 0.0 0.00 0.00 0.00 1018.5
20260505073032 -17 51 0.0 0.0 0.00 0.00 0.00 1018.6
20260505072029 -17 67 0.0 0.0 0.00 0.00 0.00 1018.7
20260505071029 -17 69 0.0 0.0 0.00 0.00 0.00 1018.7
20260505070027 -17 91 0.0 0.0 0.00 0.00 0.00 1018.8
20260505065025 -17 66 0.0 0.0 0.00 0.00 0.00 1018.7
20260505064021 -17 63 0.0 0.0 0.00 0.00 0.00 1018.8
20260505063019 -17 55 0.0 0.0 0.00 0.00 0.00 1019.0
20260505062020 -17 41 0.0 0.0 0.00 0.00 0.00 1019.0
20260505061015 -17 224 0.0 0.0 0.00 0.00 0.00 1018.9
20260505060014 -17 67 0.0 0.0 0.00 0.00 0.00 1019.0
20260505055012 -17 96 0.0 0.0 0.00 0.00 0.00 1019.1
20260505054008 -17 101 0.0 0.0 0.00 0.00 0.00 1019.0
20260505053007 -17 86 0.0 0.0 0.00 0.00 0.00 1019.3
20260505052007 -17 103 0.0 0.0 0.00 0.00 0.00 1019.4
20260505051002 -17 105 0.0 0.0 0.00 0.00 0.00 1019.4
20260505041000 -17 93 0.0 0.0 0.00 0.00 0.00 1020.1
20260505040000 -17 90 0.0 0.0 0.00 0.00 0.00 1020.0
20260505034959 -17 86 0.0 0.0 0.00 0.00 0.00 1019.9
20260505033958 -17 84 0.0 0.0 0.00 0.00 0.00 1020.1
20260505032953 -17 79 0.0 0.0 0.00 0.00 0.00 1020.0
20260505031952 -17 76 0.0 0.0 0.00 0.00 0.00 1020.2
20260505030952 -17 75 0.0 0.0 0.00 0.00 0.00 1020.3
20260505025949 -17 74 0.0 0.0 0.00 0.00 0.00 1020.3
20260505024945 -17 74 0.0 0.0 0.00 0.00 0.00 1020.4
20260505023945 -17 74 0.0 0.0 0.00 0.00 0.00 1020.5
20260505022946 -17 74 0.0 0.0 0.00 0.00 0.00 1020.1
20260505021940 -17 73 0.0 0.0 0.00 0.00 0.00 1019.9
20260505020938 -17 74 0.0 0.0 0.00 0.00 0.00 1020.0
20260505015936 -17 72 0.0 0.0 0.00 0.00 0.00 1019.9
20260505014931 -17 72 0.0 0.0 0.00 0.00 0.00 1019.8
20260505013930 -17 73 0.0 0.0 0.00 0.00 0.00 1019.6
20260505012925 -17 72 0.0 0.0 0.00 0.00 0.00 1019.8
20260505011925 -17 72 0.0 0.0 0.00 0.00 0.00 1019.6
20260505010924 -17 72 0.0 0.0 0.00 0.00 0.00 1019.5
20260505005922 -17 72 0.0 0.0 0.00 0.00 0.00 1019.5
20260505004922 -17 72 0.0 0.0 0.00 0.00 0.00 1019.4
20260505003921 -17 74 0.0 0.0 0.00 0.00 0.00 1019.3
20260505002920 -17 72 0.0 0.0 0.00 0.00 0.00 1019.0
20260505001916 -17 72 0.0 0.0 0.00 0.00 0.00 1019.0
20260505000910 -17 72 0.0 0.0 0.00 0.00 0.00 1019.1
20260504235910 -17 73 0.0 0.0 0.00 0.00 0.00 1018.8
20260504234909 -17 74 0.0 0.0 0.00 0.00 0.00 1018.9
20260504233909 -17 75 0.0 0.0 0.00 0.00 0.00 1018.7
20260504232907 -17 76 0.0 0.0 0.00 0.00 0.00 1018.7
20260504231907 -17 76 0.0 0.0 0.00 0.00 0.00 1018.8
20260504230906 -17 78 0.0 0.0 0.00 0.00 0.00 1018.4
20260504225902 -17 79 0.0 0.0 0.00 0.00 0.00 1018.1
20260504224902 -17 78 0.0 0.0 0.00 0.00 0.00 1018.1
20260504223901 -17 78 0.0 0.0 0.00 0.00 0.00 1018.0
20260504222858 -17 77 0.0 0.0 0.00 0.00 0.00 1017.9
20260504221854 -17 76 0.0 0.0 0.00 0.00 0.00 1018.0
20260504220853 -17 79 3.2 9.7 0.00 0.00 0.00 1017.7
20260504215853 -17 80 1.6 1.6 0.00 0.00 0.00 1017.7
20260504214851 -17 84 0.0 3.2 0.00 0.00 0.00 1017.4
20260504213850 -17 83 0.0 1.6 0.00 0.00 0.00 1017.4
20260504212850 -17 86 1.6 3.2 0.00 0.00 0.00 1017.3
20260504211849 -17 88 3.2 4.8 0.00 0.00 0.00 1017.1
20260504210849 -17 91 8.0 11.3 0.00 0.00 0.00 1017.4
20260504205848 -17 93 4.8 8.0 0.00 0.00 0.00 1017.5
20260504204844 -17 89 8.0 11.3 0.00 0.00 0.00 1017.1
20260504203842 -17 81 6.4 9.7 0.00 0.00 0.00 1017.2
20260504202840 -17 85 1.6 4.8 0.00 0.00 0.00 1017.1
20260504201839 -17 80 0.0 1.6 0.00 0.00 0.00 1017.1
20260504200834 -17 76 9.7 14.5 0.00 0.00 0.00 1017.0
20260504195833 -17 71 9.7 12.9 0.00 0.00 0.00 1017.0
20260504194831 -17 67 8.0 11.3 0.00 0.00 0.00 1017.1
20260504193829 -17 71 12.9 17.7 0.00 0.00 0.00 1017.3
20260504192825 -17 77 4.8 8.0 0.00 0.00 0.00 1017.3
20260504191821 -17 92 11.3 16.1 0.00 0.00 0.00 1017.4
20260504190819 -17 98 4.8 11.3 0.00 0.00 0.00 1017.4
20260504185818 -17 104 8.0 11.3 0.00 0.00 0.00 1017.2
20260504184817 -17 89 9.7 12.9 0.00 0.00 0.00 1017.4
20260504183815 -17 67 8.0 12.9 0.00 0.00 0.00 1017.3
20260504182810 -17 77 1.6 8.0 0.00 0.00 0.00 1017.7
20260504181810 -17 96 9.7 11.3 0.00 0.00 0.00 1017.7
20260504180807 -17 100 6.4 9.7 0.00 0.00 0.00 1017.9
20260504175802 -17 94 8.0 11.3 0.00 0.00 0.00 1018.4
20260504174803 -17 77 11.3 12.9 0.00 0.00 0.00 1018.2
20260504173802 -17 76 1.6 3.2 0.00 0.00 0.00 1018.5
20260504172802 -17 76 3.2 9.7 0.00 0.00 0.00 1018.4
20260504171800 -17 81 0.0 3.2 0.00 0.00 0.00 1018.4
20260504170755 -17 89 8.0 11.3 0.00 0.00 0.00 1018.3
20260504150733 -17 91 6.4 12.9 0.00 0.00 0.00 1019.4
20260504140731 -17 86 0.0 0.0 0.00 0.00 0.00 1019.7
20260504130719 -17 89 4.8 9.7 0.00 0.00 0.00 1019.8